Regional Weather Roundup
Issued by NWS

Home | Current Version | Previous Version | Graphics & Text | Print | Product List | Glossary On
Versions: 1 2 3 4 5 6 7 8 9 10 11 12 13 14 15 16 17 18 19 20 21 22 23 24 25 26 27 28 29 30 31 32 33 34 35 36 37 38 39 40 41 42 43 44 45 46 47 48 49 50
000
ASUS43 KBIS 231502
RWRND

NORTH DAKOTA REGIONAL WEATHER ROUNDUP
NATIONAL WEATHER SERVICE BISMARCK ND
1000 AM CDT TUE AUG 23 2016

NOTE: "FAIR" INDICATES FEW OR NO CLOUDS BELOW 12,000 FEET WITH NO
SIGNIFICANT WEATHER AND/OR OBSTRUCTIONS TO VISIBILITY.


NDZ001>003-009>011-017-231600-
NORTHWEST NORTH DAKOTA

CITY           SKY/WX    TMP DP  RH WIND       PRES   REMARKS
WILLISTON      PTSUNNY   68  36  30 NW20G29   29.80R
MINOT          CLOUDY    68  54  60 W22G29    29.66R
MINOT AFB      CLOUDY    68  50  52 NW23G36   29.65R
$$

NDZ018>021-031>035-040>046-231600-
SOUTHWEST NORTH DAKOTA

CITY           SKY/WX    TMP DP  RH WIND       PRES   REMARKS
BISMARCK       PTSUNNY   70  66  87 NW14G20   29.64R FOG
DICKINSON      SUNNY     68  37  32 NW23G30   29.79R
GARRISON         N/A     71  55  56 NW21G26   29.68R
HETTINGER ARPT SUNNY     69  41  36 NW24G35   29.80R
$$

NDZ004>008-012>016-024-026-027-054-231600-
NORTHEAST NORTH DAKOTA

CITY           SKY/WX    TMP DP  RH WIND       PRES   REMARKS
GRAND FORKS    MOSUNNY   76  64  66 S20       29.64R
GRND FRKS AFB  MOSUNNY   74  64  69 S21       29.64R
DEVILS LAKE    SUNNY     74  65  73 S13       29.61S
$$

NDZ022-023-025-028>030-036>039-047>053-231600-
SOUTHEAST NORTH DAKOTA

CITY           SKY/WX    TMP DP  RH WIND       PRES   REMARKS
FARGO          MOSUNNY   75  62  64 SE14      29.70S
JAMESTOWN      CLOUDY    68  64  87 S12       29.64S
$$





USA.gov is the U.S. government's official web portal to all federal, state and local government web resources and services.